GEFSMW_con_cape1000_264.txt.gz
Probability
6 10 19 23 32 55 61 68 71 77 71 68 68 65 61 74 74 68 65 65 68 68 68 55 81 71 68 71 52 58 45 35 48 42 32 32 32 32 42 29 29 29 23
10 13 23 23 32 55 61 74 74 77 77 68 77 74 65 68 68 65 71 65 68 68 61 71 71 81 81 77 77 74 55 42 39 35 39 19 23 35 19 39 39 32 32
10 16 26 32 35 45 61 58 74 74 74 74 71 65 71 68 65 71 65 65 61 65 68 74 71 77 71 84 77 71 61 48 42 32 26 29 26 16 19 39 32 39 39
6 16 26 32 32 45 48 61 77 77 77 81 68 65 74 61 68 68 68 65 65 65 61 74 74 81 68 81 65 65 58 55 45 42 52 26 35 29 32 26 23 29 42
16 19 16 29 32 42 48 65 74 81 81 77 77 77 65 65 68 68 71 71 58 61 65 74 84 87 77 77 65 77 61 58 55 48 42 35 45 23 26 29 32 32 29
26 26 23 32 35 35 42 55 77 90 87 84 74 81 77 74 71 77 68 61 61 65 61 71 77 74 68 74 77 71 68 65 65 48 42 45 35 32 26 26 32 29 26
26 29 29 35 39 39 45 52 77 84 84 81 71 77 81 77 74 74 74 61 58 55 58 58 71 74 68 68 65 68 68 65 68 61 48 39 39 39 32 35 26 35 29
26 26 32 35 45 55 58 65 74 87 81 81 84 87 84 71 71 77 68 61 58 52 68 71 68 68 61 58 65 58 65 68 65 45 61 61 45 45 42 35 42 39 35
19 23 29 32 45 58 68 68 81 84 84 84 87 84 84 81 77 77 74 65 74 65 65 65 68 68 68 68 71 65 68 71 61 45 52 48 39 35 45 42 42 39 29
23 32 32 29 42 61 65 68 77 84 87 81 81 74 81 81 81 71 71 68 77 71 61 61 65 68 71 68 74 71 68 61 58 55 61 55 45 45 48 42 45 35 35
26 35 45 42 52 58 58 65 77 77 81 77 81 84 77 74 74 77 71 74 71 71 68 65 61 65 68 68 71 58 61 58 61 55 52 55 58 52 39 35 35 39 35
48 52 48 48 55 52 55 65 68 74 74 77 81 81 77 74 77 77 71 71 71 71 71 71 68 65 61 65 61 58 55 55 55 52 52 52 52 52 52 45 39 42 45
42 45 48 52 52 55 61 65 58 68 71 74 77 77 77 77 77 81 71 71 71 68 65 68 68 68 68 61 61 55 55 48 52 52 48 48 45 45 45 45 42 35 29
42 42 52 52 52 65 65 61 58 65 68 68 71 74 77 77 77 74 68 68 68 65 68 68 68 68 61 58 55 48 52 39 35 42 35 32 35 39 35 35 42 39 42
48 48 52 55 58 65 61 65 61 65 65 68 74 74 77 77 74 74 74 71 68 65 65 65 61 55 52 52 55 45 42 42 39 45 45 29 29 26 26 26 32 32 29
42 52 52 52 55 58 58 61 65 68 74 74 74 81 84 77 77 77 74 71 68 68 65 61 58 52 35 23 19 32 39 39 42 42 45 39 29 16 6 3 3 6 23
48 52 52 42 48 52 52 61 58 65 71 71 71 74 77 77 77 71 71 68 65 65 61 58 55 55 42 23 6 6 32 42 45 42 45 42 29 19 23 16 0 0 0
45 55 48 52 45 42 39 52 48 58 61 68 71 68 68 68 68 68 68 61 61 61 61 61 52 52 45 26 10 3 16 35 39 39 39 39 39 23 23 23 16 16 10
42 52 58 48 52 45 45 48 45 55 65 68 71 65 61 61 61 58 58 55 61 65 58 55 55 48 39 19 6 0 32 42 39 39 39 39 32 26 16 16 19 19 19
45 48 48 55 52 48 42 42 42 48 58 65 65 68 58 61 58 55 61 55 58 48 55 48 42 42 39 23 6 0 32 39 42 42 42 32 29 26 3 16 19 19 19
48 45 48 48 48 39 42 42 48 48 52 58 52 48 52 52 52 55 48 45 42 39 45 39 39 42 35 32 13 0 39 35 35 29 32 35 13 0 0 3 10 13 10
39 42 42 45 45 45 42 45 52 55 55 48 48 45 42 48 45 45 45 39 39 39 39 35 29 32 32 26 13 0 0 10 29 29 26 26 6 0 0 0 3 3 0
35 42 42 42 42 42 45 45 52 48 42 39 39 42 35 39 42 45 39 39 39 39 35 32 29 26 23 19 13 0 0 0 10 23 23 6 0 0 0 0 0 0 3
35 39 42 42 42 35 39 52 42 39 35 35 39 35 39 35 39 39 29 29 32 35 29 26 29 23 19 16 19 19 6 0 0 3 3 0 0 0 3 0 0 0 3
35 39 42 42 39 35 32 39 35 35 35 35 32 32 32 29 35 29 29 26 26 26 29 19 19 26 23 13 13 13 13 23 19 13 6 10 13 19 10 13 16 10 10
35 39 35 39 39 29 29 39 39 35 35 32 32 32 23 23 23 26 16 10 6 6 10 13 13 13 10 3 0 0 3 3 0 6 13 13 13 10 13 13 10 10 10

GEFSMW_con_cape1000_270.txt.gz
Probability
16 16 19 26 48 68 81 81 77 77 84 84 84 84 81 87 84 84 74 71 71 74 77 71 84 87 74 84 81 81 77 71 71 68 58 65 61 65 58 55 45 42 35
19 35 29 39 48 68 81 81 84 77 84 84 87 87 87 87 84 84 87 74 74 71 65 81 84 87 84 84 84 87 81 71 65 68 55 58 55 52 42 52 48 48 42
19 39 39 32 48 65 71 74 87 87 84 84 84 87 87 87 84 77 84 74 71 77 81 84 81 87 87 87 81 87 74 71 77 58 52 55 48 45 61 55 55 58 48
23 32 29 42 48 61 65 84 87 87 90 90 84 81 81 81 87 84 84 74 77 77 81 81 81 87 84 90 84 84 81 81 71 74 61 58 55 52 39 58 71 61 58
26 26 29 42 48 58 61 77 87 87 90 90 87 84 84 84 84 84 81 84 84 77 74 77 84 87 90 90 87 87 81 84 81 77 71 58 71 65 52 35 58 58 55
23 29 35 48 45 52 55 68 84 87 84 84 84 84 81 81 81 84 84 81 81 81 81 77 84 87 87 87 90 90 84 87 81 81 81 77 68 58 45 45 48 52 52
32 32 42 45 45 52 55 71 87 87 84 84 87 87 81 81 81 84 81 81 81 77 84 77 84 84 84 87 90 87 87 87 84 84 90 84 68 74 65 58 48 52 55
32 39 52 52 48 45 65 74 87 87 87 87 87 87 87 84 84 84 84 81 81 77 71 77 81 81 84 77 90 81 87 90 90 81 87 90 77 77 77 68 48 48 45
35 32 42 42 55 55 77 77 94 90 90 87 94 94 90 84 84 84 87 84 84 77 71 77 81 77 77 77 90 87 90 87 84 84 87 81 77 65 65 71 68 55 39
32 35 42 42 52 55 77 81 90 90 90 94 94 87 90 90 87 84 84 87 81 81 77 71 77 74 77 77 84 81 81 81 81 77 77 74 71 74 65 55 58 65 61
23 29 29 45 42 52 58 77 84 87 90 90 97 94 94 87 84 84 84 84 84 84 81 74 74 74 71 71 74 74 71 68 65 65 65 65 61 61 58 58 61 68 61
39 42 39 45 48 45 52 77 74 81 77 81 90 94 94 87 87 84 77 81 81 84 81 81 77 65 65 68 68 68 68 65 61 65 65 61 55 58 58 55 55 55 61
39 39 42 55 58 58 71 68 74 74 77 81 87 90 84 84 84 77 77 74 77 84 77 74 71 71 71 68 61 61 58 61 65 58 58 55 52 52 55 61 55 52 42
52 42 52 65 68 71 71 71 68 68 74 81 77 81 77 77 77 77 81 77 74 71 74 74 71 68 65 65 65 65 58 52 48 48 52 45 45 39 42 45 52 45 42
55 65 61 68 68 68 74 74 71 77 77 81 77 77 77 77 77 77 77 71 74 68 71 71 71 65 65 58 61 58 58 52 52 45 42 45 45 29 32 32 35 32 35
52 58 65 68 68 68 74 77 74 77 77 74 74 74 74 77 77 74 74 74 74 74 71 71 61 58 52 32 39 45 58 52 48 48 42 42 45 29 23 19 16 19 29
52 61 61 61 77 77 74 77 81 74 74 71 74 71 74 77 77 71 77 74 71 71 68 61 58 55 45 26 16 23 39 52 52 52 45 42 35 32 35 19 6 3 3
42 52 58 61 61 65 61 71 65 71 71 65 65 61 61 71 71 71 71 71 71 65 58 58 58 52 35 32 19 10 29 42 45 48 45 42 45 39 39 39 29 26 23
52 52 55 55 58 61 58 61 61 61 65 65 65 61 61 65 65 68 68 65 61 58 55 55 58 48 39 32 16 3 32 45 45 45 42 42 35 35 29 35 39 29 32
52 52 58 55 55 52 55 58 55 61 58 55 58 55 55 55 55 52 65 61 58 58 55 52 52 42 39 29 16 0 29 45 45 39 39 35 32 29 16 32 35 32 29
45 55 52 58 58 58 61 58 61 61 58 58 58 58 55 55 48 55 58 61 55 58 55 48 45 48 29 29 13 0 29 35 39 39 32 29 23 10 0 3 23 23 26
42 48 48 55 55 55 58 55 55 61 61 61 61 61 58 42 39 52 48 48 55 55 52 55 48 32 29 19 13 3 3 16 35 35 26 26 3 0 0 0 13 10 3
42 48 48 52 52 48 55 52 52 52 52 55 52 55 48 52 45 39 35 35 42 39 39 42 32 32 23 16 13 6 0 0 19 19 10 6 0 0 0 0 0 0 6
32 35 42 45 42 48 48 48 48 52 45 45 45 48 42 39 35 35 29 23 26 26 32 35 32 26 23 16 16 6 3 3 3 10 0 0 0 0 3 3 0 0 6
35 35 45 45 42 48 45 48 48 52 48 45 42 42 39 35 39 23 16 19 19 19 16 23 32 26 23 16 16 16 16 10 10 3 6 6 6 10 10 16 13 13 13
35 39 35 42 35 35 35 42 42 42 39 39 39 35 32 29 19 16 13 6 6 3 6 6 10 13 13 13 6 6 13 10 3 3 6 10 6 13 13 6 6 10 13

GEFSMW_con_cape1000_276.txt.gz
Probability
3 6 6 3 13 10 13 16 10 6 16 19 16 10 10 13 10 13 19 16 16 26 19 32 19 16 13 13 13 13 13 10 13 6 3 3 3 6 10 6 3 0 3
6 10 16 16 19 16 19 16 13 16 16 26 23 13 10 13 29 26 16 19 23 23 23 23 16 23 23 19 19 16 13 10 10 13 6 3 3 0 3 3 3 3 0
3 13 16 19 16 19 23 26 26 19 23 23 26 23 16 13 23 23 19 29 29 23 32 23 19 23 19 23 19 19 19 16 16 13 3 3 3 3 0 0 0 0 0
3 16 19 19 16 19 26 19 32 35 35 32 26 23 23 23 26 23 23 35 29 32 45 35 26 23 16 23 26 26 23 19 16 6 6 3 3 3 3 0 0 0 0
0 13 19 16 19 29 29 29 29 35 35 39 29 32 23 23 29 29 26 39 35 45 42 39 32 26 29 32 32 26 26 23 16 13 13 6 3 0 3 0 0 0 0
6 13 19 19 26 35 45 42 35 39 45 32 35 35 35 26 29 39 39 42 45 45 42 45 32 26 32 35 35 35 29 26 19 16 16 13 6 6 3 0 3 3 0
13 10 13 19 29 45 45 48 48 45 48 39 39 35 35 35 42 42 42 39 42 39 35 39 39 39 32 39 39 35 32 23 23 23 16 16 10 6 3 3 3 3 3
16 10 13 23 32 42 45 45 52 52 52 48 39 45 42 45 45 45 42 45 42 39 39 35 42 42 39 39 39 35 35 32 29 29 26 19 10 10 6 3 3 3 3
16 19 16 23 35 42 42 52 55 58 55 48 42 48 45 48 48 45 42 39 42 42 39 42 39 42 42 32 32 35 32 35 29 26 23 19 16 13 6 3 3 3 3
19 19 23 19 26 35 45 45 52 55 61 55 45 52 48 45 42 42 42 39 39 39 39 39 39 39 39 39 32 26 32 32 32 26 26 19 16 16 16 6 3 3 3
19 19 23 19 19 29 42 48 52 58 61 58 55 52 48 45 45 42 39 39 39 39 39 35 35 35 35 39 29 26 29 26 26 29 29 29 23 23 16 10 6 3 3
19 19 19 19 26 29 42 45 52 58 55 58 55 55 52 48 45 45 45 45 42 35 39 42 32 35 32 32 32 26 32 29 29 29 29 19 26 23 13 13 13 3 3
16 16 19 23 23 26 39 45 48 52 61 61 65 55 52 55 52 52 48 45 45 42 39 39 39 35 29 26 35 29 26 29 32 29 26 26 26 26 19 16 13 10 3
23 19 26 26 23 26 39 45 52 52 55 65 52 48 48 52 55 52 52 48 48 45 39 45 39 39 26 26 32 26 26 23 23 23 29 26 26 26 26 23 16 13 13
19 23 29 23 23 32 32 42 45 55 58 61 52 52 48 48 48 45 45 45 48 42 39 39 35 26 26 26 29 29 29 26 26 26 26 26 29 26 23 26 26 16 13
19 19 19 26 26 23 35 42 48 48 48 48 52 52 52 45 42 45 42 35 32 32 32 26 26 26 23 26 26 23 29 29 26 26 26 23 29 29 26 19 19 16 16
13 16 16 23 23 26 29 32 42 42 45 42 45 48 42 52 52 55 39 35 39 29 29 23 26 26 26 26 19 16 23 23 26 23 23 23 29 26 23 26 10 10 3
16 19 16 16 19 29 26 26 39 39 42 45 45 45 52 45 48 45 42 42 35 32 19 26 26 26 26 19 13 6 13 19 19 19 16 16 19 19 19 19 19 16 6
23 26 26 23 26 32 32 26 26 26 32 35 35 35 39 32 35 35 39 32 32 26 23 19 19 16 16 13 6 3 13 16 16 19 19 16 19 19 10 10 19 19 19
32 35 35 35 35 29 35 35 26 26 29 32 35 35 35 35 32 29 16 16 23 26 19 19 13 13 13 10 6 0 10 13 16 16 13 13 10 10 0 3 10 19 16
26 35 35 32 32 29 32 32 32 29 35 39 39 35 32 35 26 16 16 16 19 19 16 13 16 13 13 10 6 0 6 13 13 16 16 16 10 3 0 0 3 13 6
19 23 26 23 23 26 32 32 35 29 32 32 32 32 26 32 26 16 19 16 19 19 23 16 13 13 13 10 6 0 0 3 10 13 16 16 10 3 0 0 3 3 0
16 16 19 19 16 19 32 35 35 32 35 35 26 23 23 23 19 16 13 13 16 19 23 13 16 13 10 13 6 0 0 0 0 10 13 6 6 3 0 0 0 0 3
23 23 19 23 16 23 23 32 26 29 29 26 26 19 16 19 16 16 13 13 16 13 10 10 10 10 10 10 10 6 6 3 0 0 0 0 0 0 3 0 0 0 3
19 19 19 19 23 19 26 29 29 26 26 23 23 16 16 13 16 13 6 13 10 13 10 3 10 10 10 6 10 10 6 6 3 3 0 0 3 3 6 6 0 3 3
16 16 16 13 13 16 19 23 23 26 26 19 16 16 16 13 10 10 6 3 3 3 0 3 3 6 3 6 0 0 0 3 3 3 3 3 3 6 6 6 3 3 3

GEFSMW_con_cape1000_282.txt.gz
Probability
3 3 3 3 0 3 3 3 3 0 0 0 0 0 0 0 0 0 3 3 3 6 3 10 10 6 10 3 6 6 10 10 6 6 0 0 0 0 6 6 10 6 6
3 3 3 3 0 0 3 3 3 3 3 0 0 0 0 0 3 3 3 6 6 10 13 10 10 6 6 3 6 10 6 6 3 3 0 0 0 0 0 0 3 3 3
3 3 6 3 3 3 3 10 6 3 3 0 0 0 3 6 3 3 0 6 13 16 16 10 6 10 10 10 3 10 10 6 3 3 3 3 3 0 0 0 0 6 10
3 3 3 3 3 6 6 10 10 6 0 0 3 3 6 6 3 0 6 13 19 16 16 19 10 13 16 13 6 6 13 6 6 6 6 10 6 6 6 0 0 0 3
3 3 3 3 3 6 3 10 10 10 0 0 3 3 3 3 0 6 6 16 19 23 23 26 26 10 13 19 16 19 10 10 10 10 6 6 6 0 6 6 0 0 0
3 3 3 3 3 6 6 13 13 3 3 0 0 3 3 3 6 13 13 16 16 26 29 23 13 13 16 23 29 26 23 19 13 13 10 13 13 10 6 3 3 3 3
0 3 6 6 6 10 10 13 13 6 3 0 0 3 6 6 6 13 13 16 13 23 32 35 29 19 23 19 23 23 26 19 23 23 16 13 10 10 3 3 3 3 3
3 6 6 6 10 13 16 13 13 13 6 10 0 3 3 10 6 13 16 10 6 23 23 23 26 23 23 29 32 32 29 29 23 19 19 19 13 10 6 6 3 3 3
0 10 10 16 13 13 13 13 16 19 16 16 13 10 6 16 19 19 10 10 16 23 26 26 29 26 29 26 29 29 23 29 29 29 26 23 19 13 13 10 6 13 6
3 10 13 13 13 13 16 19 19 26 23 19 23 19 13 19 23 23 19 19 16 23 26 26 29 29 32 26 23 23 23 19 19 19 26 19 19 19 13 10 10 6 10
10 10 6 13 13 16 19 23 16 23 16 16 19 26 26 26 26 29 32 26 23 29 32 32 29 29 29 23 23 23 19 13 13 16 16 16 16 16 16 6 6 6 6
13 13 13 13 13 19 23 23 23 26 19 23 23 23 26 39 29 29 26 35 35 39 35 32 29 26 23 23 19 19 19 16 16 16 13 16 13 16 16 13 13 10 3
19 19 10 19 23 23 23 29 29 26 26 23 23 26 39 35 32 26 29 29 32 29 29 26 29 29 26 23 23 19 23 23 23 19 19 13 16 16 16 16 16 16 13
19 19 16 16 16 23 23 26 29 32 29 29 26 29 29 32 32 23 26 26 32 35 29 29 29 29 26 23 23 26 26 26 26 23 19 19 16 19 23 23 23 16 19
19 19 16 16 16 16 19 19 29 32 29 26 23 32 26 32 26 19 23 26 32 29 29 29 26 23 16 19 23 26 26 26 23 19 16 16 19 19 16 19 19 19 19
16 19 16 16 16 16 16 19 26 29 29 26 26 26 19 19 16 23 23 26 26 26 26 29 29 23 16 19 16 13 23 23 23 23 19 23 23 16 10 10 10 13 16
13 16 16 16 19 19 19 23 26 26 26 29 19 26 23 19 23 23 26 23 26 26 29 29 23 19 16 10 6 6 10 13 13 16 23 19 16 13 16 13 6 6 6
13 23 19 19 19 23 23 23 23 26 35 32 35 29 26 19 19 23 23 19 23 23 23 26 19 16 13 6 0 0 10 6 13 13 13 13 19 10 13 16 19 10 6
16 16 19 23 19 23 19 23 29 26 32 35 32 29 23 16 16 19 23 19 26 23 19 16 16 13 13 6 0 0 0 3 6 10 10 10 13 6 3 6 6 10 13
13 13 10 16 16 16 19 19 19 19 29 29 29 23 23 19 16 16 16 13 16 16 13 10 6 10 10 0 0 0 0 3 6 10 10 6 6 10 0 6 13 10 13
6 6 10 16 13 19 19 19 16 16 19 26 26 23 19 19 19 16 16 13 13 10 10 10 10 10 3 0 0 0 0 0 6 6 6 10 6 0 0 0 10 10 10
3 6 13 6 10 10 23 23 19 10 19 23 23 19 19 16 16 16 13 13 10 10 10 13 13 6 6 0 0 0 0 0 0 3 3 6 3 0 0 0 0 0 0
10 13 10 10 6 10 13 23 16 19 19 23 23 23 19 16 16 19 13 10 10 10 10 10 13 10 3 0 0 0 0 0 0 3 0 3 3 0 0 0 0 0 0
6 13 13 16 13 6 6 13 13 13 13 19 19 19 19 19 16 16 10 10 10 10 10 10 10 3 6 6 0 0 0 0 0 0 0 0 0 0 0 0 0 0 3
6 10 13 16 16 13 13 13 10 13 13 19 19 19 19 19 16 13 10 10 10 10 10 10 10 10 3 0 0 0 0 0 0 0 0 0 3 3 3 3 3 3 6
6 6 10 13 19 16 16 16 13 10 16 16 19 19 16 16 16 13 6 3 6 6 3 3 6 6 0 0 0 0 0 0 0 0 0 0 3 3 3 3 3 3 3